QPF
0.00 0.00 0.00 0.00 0.00 0.00 0.00 0.00 0.00 0.00 0.00 0.00 0.00 0.00 0.00 0.00 0.00 0.00 0.00 0.00 0.00 0.00 0.00 0.00 0.00 0.00 0.00 0.00 0.00 0.00 0.00 0.00 0.00 0.00 0.00 0.00 0.00 0.00 0.00 0.00 0.00 0.00 0.00 0.00 0.00 0.00 0.00 0.00 0.00 0.00 0.00 0.00 0.00 0.00 0.00 0.00 0.00 0.00 0.00 0.00 0.00 0.00 0.00
0.00 0.00 0.00 0.00 0.00 0.00 0.00 0.00 0.00 0.00 0.00 0.00 0.00 0.00 0.00 0.00 0.00 0.00 0.00 0.00 0.00 0.00 0.00 0.00 0.00 0.00 0.00 0.00 0.00 0.00 0.00 0.00 0.00 0.00 0.00 0.00 0.00 0.00 0.00 0.00 0.00 0.00 0.00 0.00 0.00 0.00 0.00 0.00 0.00 0.00 0.00 0.00 0.00 0.00 0.00 0.00 0.00 0.00 0.00 0.00 0.00 0.00 0.00
0.00 0.00 0.00 0.00 0.00 0.00 0.00 0.00 0.00 0.00 0.00 0.00 0.00 0.00 0.00 0.00 0.00 0.00 0.00 0.00 0.00 0.00 0.00 0.00 0.00 0.00 0.00 0.00 0.00 0.00 0.00 0.00 0.00 0.00 0.00 0.00 0.00 0.00 0.00 0.00 0.00 0.00 0.00 0.00 0.00 0.00 0.00 0.00 0.00 0.00 0.00 0.00 0.00 0.00 0.00 0.00 0.00 0.00 0.00 0.00 0.00 0.00 0.00
0.00 0.00 0.00 0.00 0.00 0.00 0.00 0.00 0.00 0.00 0.00 0.00 0.00 0.00 0.00 0.00 0.00 0.00 0.00 0.00 0.00 0.00 0.00 0.00 0.00 0.00 0.00 0.00 0.00 0.00 0.00 0.00 0.00 0.00 0.00 0.00 0.00 0.00 0.00 0.00 0.00 0.00 0.00 0.00 0.00 0.00 0.00 0.00 0.00 0.00 0.00 0.00 0.00 0.00 0.00 0.00 0.00 0.00 0.00 0.00 0.00 0.00 0.00
0.00 0.00 0.00 0.00 0.00 0.00 0.00 0.00 0.00 0.00 0.00 0.00 0.00 0.00 0.00 0.00 0.00 0.00 0.00 0.00 0.00 0.00 0.00 0.00 0.00 0.00 0.00 0.00 0.00 0.00 0.00 0.00 0.00 0.00 0.00 0.00 0.00 0.00 0.00 0.00 0.00 0.00 0.00 0.00 0.00 0.00 0.00 0.00 0.00 0.00 0.00 0.00 0.00 0.00 0.00 0.00 0.00 0.00 0.00 0.00 0.00 0.00 0.00
0.00 0.00 0.00 0.00 0.00 0.00 0.00 0.00 0.00 0.00 0.00 0.00 0.00 0.00 0.00 0.00 0.00 0.00 0.00 0.00 0.00 0.00 0.00 0.00 0.00 0.00 0.00 0.00 0.00 0.00 0.00 0.00 0.00 0.00 0.00 0.00 0.00 0.00 0.00 0.00 0.00 0.00 0.00 0.00 0.00 0.00 0.00 0.00 0.00 0.00 0.00 0.00 0.00 0.00 0.00 0.00 0.00 0.00 0.00 0.00 0.00 0.00 0.00
0.00 0.00 0.00 0.00 0.00 0.00 0.00 0.00 0.00 0.00 0.00 0.00 0.00 0.00 0.00 0.00 0.00 0.00 0.00 0.00 0.00 0.00 0.00 0.00 0.00 0.00 0.00 0.00 0.00 0.00 0.00 0.00 0.00 0.00 0.00 0.00 0.00 0.00 0.00 0.00 0.00 0.00 0.00 0.00 0.00 0.00 0.00 0.00 0.00 0.00 0.00 0.00 0.00 0.00 0.00 0.00 0.00 0.00 0.00 0.00 0.00 0.00 0.00
0.00 0.00 0.00 0.00 0.00 0.00 0.00 0.00 0.00 0.00 0.00 0.00 0.00 0.00 0.00 0.00 0.00 0.00 0.00 0.00 0.00 0.00 0.00 0.00 0.00 0.00 0.00 0.00 0.00 0.00 0.00 0.00 0.00 0.00 0.00 0.00 0.00 0.00 0.00 0.00 0.00 0.00 0.00 0.00 0.00 0.00 0.00 0.00 0.00 0.00 0.00 0.00 0.00 0.00 0.00 0.00 0.00 0.00 0.00 0.00 0.00 0.00 0.00
0.00 0.00 0.00 0.00 0.00 0.00 0.00 0.00 0.00 0.00 0.00 0.00 0.00 0.00 0.00 0.00 0.00 0.00 0.00 0.00 0.00 0.00 0.00 0.00 0.00 0.00 0.00 0.00 0.00 0.00 0.00 0.00 0.00 0.00 0.00 0.00 0.00 0.00 0.00 0.00 0.00 0.00 0.00 0.00 0.00 0.00 0.00 0.00 0.00 0.00 0.00 0.00 0.00 0.00 0.00 0.00 0.00 0.00 0.00 0.00 0.00 0.00 0.00
0.00 0.00 0.00 0.00 0.00 0.00 0.00 0.00 0.00 0.00 0.00 0.00 0.01 0.01 0.01 0.01 0.01 0.01 0.01 0.01 0.01 0.01 0.01 0.01 0.00 0.00 0.00 0.00 0.00 0.00 0.00 0.00 0.00 0.00 0.00 0.00 0.00 0.00 0.00 0.00 0.01 0.01 0.01 0.01 0.00 0.00 0.00 0.00 0.00 0.00 0.00 0.00 0.00 0.00 0.00 0.00 0.00 0.00 0.00 0.00 0.00 0.00 0.00
0.00 0.00 0.00 0.00 0.00 0.00 0.00 0.00 0.00 0.00 0.01 0.02 0.03 0.02 0.01 0.01 0.01 0.01 0.01 0.01 0.01 0.01 0.01 0.01 0.01 0.01 0.01 0.01 0.01 0.01 0.01 0.00 0.00 0.00 0.00 0.00 0.00 0.00 0.01 0.00 0.01 0.01 0.01 0.01 0.01 0.00 0.00 0.00 0.00 0.00 0.00 0.00 0.00 0.00 0.00 0.00 0.00 0.00 0.00 0.00 0.00 0.00 0.00
0.00 0.00 0.00 0.00 0.00 0.00 0.00 0.00 0.00 0.00 0.03 0.02 0.03 0.02 0.01 0.01 0.01 0.01 0.01 0.01 0.01 0.01 0.01 0.01 0.01 0.00 0.00 0.00 0.00 0.00 0.00 0.00 0.00 0.00 0.00 0.00 0.01 0.01 0.03 0.05 0.03 0.02 0.01 0.01 0.01 0.00 0.00 0.00 0.00 0.00 0.00 0.00 0.00 0.00 0.00 0.00 0.00 0.00 0.00 0.00 0.00 0.00 0.00
0.00 0.00 0.00 0.00 0.00 0.00 0.00 0.00 0.00 0.00 0.02 0.02 0.04 0.03 0.02 0.01 0.01 0.01 0.01 0.01 0.01 0.01 0.01 0.00 0.00 0.00 0.00 0.00 0.00 0.00 0.00 0.00 0.00 0.00 0.00 0.00 0.00 0.01 0.01 0.03 0.06 0.07 0.04 0.03 0.01 0.01 0.00 0.00 0.00 0.00 0.00 0.00 0.00 0.00 0.00 0.00 0.00 0.00 0.00 0.00 0.00 0.00 0.00
0.00 0.00 0.00 0.00 0.00 0.00 0.00 0.00 0.00 0.00 0.03 0.02 0.03 0.04 0.03 0.01 0.01 0.01 0.01 0.00 0.00 0.00 0.00 0.00 0.00 0.00 0.00 0.00 0.00 0.00 0.00 0.00 0.00 0.00 0.00 0.00 0.00 0.01 0.00 0.01 0.01 0.01 0.03 0.04 0.04 0.04 0.02 0.01 0.00 0.00 0.00 0.00 0.00 0.00 0.00 0.00 0.00 0.00 0.00 0.00 0.00 0.00 0.00
0.00 0.00 0.00 0.00 0.00 0.00 0.00 0.00 0.00 0.02 0.02 0.03 0.03 0.03 0.03 0.01 0.01 0.00 0.00 0.00 0.00 0.00 0.00 0.00 0.00 0.00 0.00 0.00 0.00 0.00 0.00 0.00 0.00 0.00 0.00 0.01 0.01 0.01 0.01 0.00 0.00 0.00 0.00 0.00 0.00 0.01 0.03 0.03 0.01 0.00 0.00 0.00 0.00 0.00 0.00 0.00 0.00 0.00 0.00 0.00 0.00 0.00 0.00
0.00 0.00 0.00 0.00 0.00 0.00 0.00 0.00 0.00 0.02 0.02 0.03 0.03 0.03 0.01 0.01 0.00 0.00 0.00 0.00 0.00 0.00 0.00 0.00 0.00 0.00 0.01 0.00 0.00 0.00 0.01 0.01 0.01 0.01 0.02 0.02 0.01 0.01 0.01 0.01 0.00 0.00 0.00 0.00 0.00 0.00 0.00 0.00 0.01 0.01 0.01 0.00 0.00 0.00 0.00 0.00 0.00 0.00 0.00 0.00 0.00 0.00 0.00
0.00 0.00 0.00 0.00 0.00 0.00 0.00 0.00 0.00 0.01 0.03 0.02 0.03 0.02 0.01 0.01 0.01 0.01 0.00 0.00 0.00 0.00 0.00 0.00 0.00 0.00 0.01 0.01 0.00 0.00 0.01 0.02 0.02 0.02 0.03 0.04 0.05 0.04 0.03 0.02 0.01 0.01 0.02 0.05 0.06 0.06 0.03 0.02 0.01 0.02 0.05 0.07 0.07 0.02 0.01 0.00 0.00 0.00 0.00 0.00 0.00 0.00 0.00
0.00 0.00 0.00 0.00 0.00 0.00 0.00 0.00 0.00 0.01 0.03 0.02 0.03 0.02 0.01 0.01 0.01 0.01 0.01 0.00 0.00 0.00 0.00 0.00 0.00 0.00 0.00 0.01 0.00 0.01 0.03 0.05 0.04 0.04 0.06 0.06 0.06 0.06 0.05 0.04 0.03 0.01 0.01 0.01 0.05 0.08 0.08 0.06 0.13 0.14 0.14 0.13 0.13 0.07 0.05 0.02 0.01 0.01 0.00 0.00 0.00 0.00 0.00
0.00 0.00 0.00 0.00 0.00 0.00 0.00 0.00 0.00 0.00 0.02 0.02 0.02 0.02 0.01 0.01 0.02 0.02 0.01 0.01 0.00 0.00 0.00 0.00 0.00 0.00 0.00 0.01 0.02 0.05 0.04 0.05 0.03 0.02 0.02 0.02 0.04 0.06 0.05 0.04 0.02 0.01 0.00 0.00 0.00 0.00 0.00 0.00 0.01 0.01 0.01 0.02 0.03 0.05 0.06 0.03 0.03 0.02 0.01 0.01 0.00 0.00 0.00
0.00 0.00 0.00 0.00 0.00 0.00 0.00 0.00 0.00 0.00 0.00 0.03 0.03 0.03 0.01 0.02 0.02 0.02 0.01 0.01 0.01 0.01 0.01 0.01 0.00 0.00 0.00 0.02 0.02 0.02 0.03 0.03 0.04 0.02 0.02 0.03 0.06 0.06 0.04 0.02 0.01 0.00 0.00 0.00 0.00 0.00 0.00 0.00 0.00 0.00 0.00 0.00 0.00 0.00 0.00 0.01 0.02 0.06 0.06 0.04 0.02 0.01 0.00
0.00 0.00 0.00 0.00 0.00 0.00 0.00 0.00 0.00 0.00 0.00 0.03 0.03 0.04 0.03 0.02 0.01 0.01 0.01 0.01 0.02 0.02 0.01 0.00 0.00 0.00 0.00 0.01 0.01 0.01 0.02 0.04 0.07 0.06 0.03 0.03 0.04 0.02 0.01 0.02 0.03 0.04 0.02 0.04 0.05 0.03 0.02 0.00 0.00 0.00 0.00 0.00 0.00 0.00 0.00 0.00 0.00 0.00 0.02 0.05 0.05 0.02 0.01
0.00 0.00 0.00 0.00 0.00 0.00 0.00 0.00 0.00 0.00 0.00 0.01 0.02 0.03 0.04 0.02 0.02 0.02 0.02 0.03 0.02 0.01 0.00 0.00 0.00 0.00 0.00 0.00 0.01 0.01 0.04 0.06 0.06 0.06 0.03 0.02 0.02 0.09 0.11 0.03 0.03 0.05 0.06 0.04 0.04 0.03 0.01 0.01 0.00 0.00 0.00 0.00 0.00 0.00 0.00 0.00 0.00 0.00 0.00 0.00 0.01 0.03 0.02
0.00 0.00 0.00 0.00 0.00 0.00 0.00 0.00 0.00 0.00 0.00 0.00 0.01 0.02 0.03 0.03 0.03 0.03 0.02 0.02 0.01 0.00 0.00 0.00 0.00 0.00 0.00 0.00 0.03 0.06 0.06 0.05 0.06 0.02 0.00 0.01 0.04 0.05 0.05 0.02 0.02 0.03 0.05 0.03 0.04 0.02 0.04 0.02 0.00 0.00 0.00 0.00 0.00 0.00 0.00 0.00 0.00 0.00 0.00 0.00 0.00 0.00 0.00
0.00 0.00 0.00 0.00 0.00 0.00 0.00 0.00 0.00 0.00 0.00 0.00 0.00 0.01 0.03 0.03 0.04 0.05 0.02 0.01 0.00 0.00 0.00 0.00 0.00 0.00 0.02 0.04 0.03 0.03 0.03 0.03 0.01 0.00 0.01 0.02 0.01 0.00 0.01 0.01 0.01 0.02 0.02 0.03 0.04 0.04 0.02 0.01 0.01 0.00 0.00 0.00 0.00 0.00 0.00 0.00 0.00 0.00 0.00 0.00 0.00 0.00 0.00
0.00 0.00 0.00 0.00 0.00 0.00 0.00 0.00 0.00 0.00 0.00 0.00 0.00 0.00 0.00 0.01 0.04 0.01 0.00 0.00 0.01 0.00 0.01 0.01 0.02 0.02 0.02 0.02 0.01 0.01 0.01 0.00 0.00 0.00 0.00 0.00 0.00 0.00 0.00 0.00 0.01 0.01 0.02 0.03 0.05 0.05 0.03 0.00 0.00 0.00 0.00 0.00 0.00 0.00 0.00 0.00 0.00 0.00 0.00 0.00 0.00 0.00 0.00
0.00 0.00 0.00 0.00 0.00 0.00 0.00 0.00 0.00 0.00 0.00 0.00 0.00 0.00 0.00 0.00 0.00 0.00 0.00 0.01 0.01 0.01 0.01 0.01 0.01 0.00 0.00 0.00 0.00 0.00 0.00 0.01 0.00 0.00 0.00 0.00 0.00 0.00 0.00 0.00 0.00 0.00 0.00 0.01 0.02 0.03 0.02 0.01 0.00 0.00 0.00 0.00 0.00 0.01 0.01 0.01 0.01 0.00 0.00 0.00 0.00 0.00 0.00
0.00 0.00 0.00 0.00 0.00 0.00 0.00 0.00 0.00 0.00 0.00 0.00 0.00 0.00 0.00 0.00 0.00 0.00 0.01 0.01 0.01 0.01 0.01 0.00 0.00 0.00 0.00 0.00 0.00 0.00 0.00 0.01 0.01 0.00 0.00 0.00 0.00 0.00 0.00 0.00 0.00 0.00 0.00 0.00 0.01 0.01 0.01 0.01 0.00 0.00 0.01 0.01 0.01 0.02 0.01 0.00 0.01 0.01 0.01 0.01 0.01 0.00 0.00
0.00 0.00 0.00 0.00 0.00 0.00 0.01 0.00 0.00 0.00 0.00 0.00 0.00 0.00 0.01 0.01 0.01 0.01 0.01 0.02 0.02 0.02 0.01 0.00 0.00 0.00 0.00 0.00 0.00 0.00 0.00 0.00 0.00 0.00 0.00 0.00 0.00 0.00 0.00 0.00 0.00 0.00 0.00 0.01 0.02 0.02 0.02 0.01 0.01 0.02 0.02 0.02 0.02 0.02 0.01 0.01 0.01 0.01 0.01 0.01 0.02 0.03 0.03
0.01 0.01 0.01 0.02 0.02 0.02 0.01 0.01 0.00 0.00 0.00 0.01 0.01 0.01 0.01 0.01 0.01 0.02 0.02 0.02 0.02 0.01 0.00 0.00 0.00 0.00 0.00 0.00 0.00 0.00 0.00 0.00 0.00 0.00 0.00 0.00 0.00 0.00 0.00 0.00 0.00 0.01 0.01 0.02 0.03 0.04 0.05 0.04 0.04 0.04 0.03 0.03 0.02 0.02 0.02 0.01 0.01 0.01 0.01 0.01 0.03 0.04 0.06
0.03 0.03 0.03 0.03 0.03 0.02 0.02 0.01 0.01 0.01 0.02 0.02 0.02 0.03 0.01 0.01 0.03 0.02 0.01 0.02 0.02 0.01 0.00 0.00 0.00 0.00 0.00 0.00 0.00 0.00 0.00 0.00 0.00 0.00 0.00 0.00 0.00 0.00 0.00 0.00 0.00 0.01 0.01 0.02 0.03 0.06 0.06 0.04 0.04 0.02 0.02 0.03 0.04 0.03 0.01 0.01 0.01 0.01 0.01 0.01 0.03 0.04 0.07
0.04 0.04 0.02 0.02 0.02 0.02 0.01 0.01 0.00 0.01 0.02 0.02 0.02 0.02 0.02 0.02 0.02 0.02 0.02 0.02 0.01 0.00 0.00 0.00 0.00 0.00 0.00 0.00 0.00 0.00 0.00 0.00 0.00 0.00 0.00 0.00 0.00 0.00 0.00 0.00 0.00 0.01 0.01 0.01 0.02 0.03 0.05 0.05 0.04 0.04 0.03 0.03 0.02 0.02 0.03 0.05 0.05 0.01 0.02 0.01 0.02 0.03 0.02
0.03 0.03 0.03 0.02 0.02 0.02 0.02 0.01 0.01 0.01 0.02 0.02 0.03 0.02 0.03 0.03 0.03 0.03 0.01 0.01 0.00 0.00 0.00 0.00 0.00 0.00 0.00 0.00 0.00 0.00 0.00 0.00 0.00 0.01 0.01 0.01 0.01 0.00 0.00 0.00 0.00 0.01 0.01 0.02 0.02 0.03 0.03 0.04 0.03 0.03 0.02 0.01 0.01 0.00 0.00 0.01 0.02 0.01 0.02 0.02 0.03 0.03 0.02
0.01 0.02 0.02 0.02 0.02 0.02 0.02 0.02 0.02 0.02 0.02 0.02 0.02 0.02 0.01 0.02 0.02 0.01 0.00 0.00 0.00 0.00 0.00 0.00 0.00 0.00 0.00 0.00 0.00 0.00 0.00 0.00 0.01 0.01 0.01 0.01 0.01 0.01 0.01 0.00 0.00 0.01 0.01 0.02 0.02 0.02 0.03 0.04 0.04 0.03 0.02 0.01 0.00 0.00 0.00 0.00 0.00 0.00 0.01 0.01 0.03 0.03 0.03
0.00 0.00 0.00 0.00 0.00 0.00 0.01 0.01 0.01 0.01 0.00 0.01 0.02 0.02 0.03 0.02 0.01 0.00 0.00 0.00 0.00 0.00 0.00 0.00 0.00 0.00 0.00 0.00 0.00 0.00 0.00 0.01 0.00 0.00 0.01 0.01 0.01 0.01 0.01 0.00 0.00 0.00 0.01 0.01 0.01 0.02 0.02 0.02 0.02 0.03 0.03 0.02 0.01 0.00 0.00 0.00 0.00 0.00 0.00 0.01 0.03 0.04 0.03
0.00 0.00 0.00 0.00 0.00 0.00 0.00 0.00 0.00 0.00 0.00 0.00 0.01 0.03 0.02 0.00 0.00 0.00 0.00 0.00 0.00 0.00 0.00 0.00 0.00 0.00 0.00 0.00 0.00 0.00 0.00 0.00 0.00 0.01 0.01 0.01 0.01 0.01 0.01 0.01 0.00 0.00 0.00 0.01 0.01 0.01 0.01 0.02 0.02 0.02 0.02 0.02 0.02 0.01 0.00 0.01 0.00 0.00 0.00 0.00 0.01 0.03 0.04
0.00 0.00 0.00 0.00 0.00 0.00 0.00 0.00 0.00 0.00 0.00 0.02 0.03 0.02 0.01 0.00 0.00 0.00 0.00 0.00 0.00 0.00 0.00 0.00 0.00 0.00 0.00 0.00 0.00 0.00 0.00 0.01 0.01 0.01 0.01 0.01 0.01 0.01 0.01 0.01 0.01 0.01 0.00 0.00 0.01 0.01 0.01 0.01 0.02 0.02 0.02 0.03 0.03 0.02 0.01 0.00 0.00 0.00 0.00 0.00 0.00 0.02 0.03
MSLP
1032.35 1032.23 1032.11 1031.99 1031.87 1031.67 1031.47 1031.31 1031.19 1031.07 1030.95 1030.79 1030.63 1030.47 1030.31 1030.07 1029.91 1029.71 1029.47 1029.23 1028.99 1028.79 1028.67 1028.39 1028.07 1027.79 1027.59 1027.43 1027.23 1026.99 1026.75 1026.59 1026.43 1026.23 1025.99 1025.75 1025.47 1025.11 1024.71 1024.39 1024.11 1023.63 1022.63 1021.79 1022.07 1021.55 1021.03 1020.79 1020.67 1020.19 1019.99 1019.51 1019.19 1018.87 1018.47 1017.99 1017.63 1017.35 1017.07 1016.87 1016.71 1016.59 1016.35
1032.27 1032.15 1031.99 1031.83 1031.63 1031.55 1031.47 1031.35 1031.19 1030.99 1030.83 1030.79 1030.63 1030.43 1030.23 1029.99 1029.79 1029.55 1029.27 1029.07 1028.75 1028.55 1028.47 1028.27 1027.99 1027.67 1027.43 1027.31 1027.11 1026.79 1026.55 1026.39 1026.19 1026.03 1025.87 1025.55 1025.35 1024.99 1024.67 1024.43 1024.23 1023.67 1023.19 1022.15 1021.83 1021.59 1021.11 1020.91 1020.79 1020.23 1019.95 1019.87 1019.43 1019.07 1018.83 1018.55 1018.15 1017.75 1017.47 1016.99 1016.63 1016.35 1016.15
1032.15 1031.99 1031.83 1031.67 1031.51 1031.43 1031.31 1031.23 1031.11 1031.03 1030.87 1030.67 1030.51 1030.27 1030.03 1029.87 1029.67 1029.43 1029.15 1028.91 1028.63 1028.43 1028.23 1028.07 1027.83 1027.55 1027.31 1027.19 1026.99 1026.71 1026.43 1026.23 1025.99 1025.79 1025.55 1025.31 1025.07 1024.83 1024.51 1024.27 1024.15 1023.87 1023.27 1022.79 1021.91 1021.71 1021.07 1020.95 1020.63 1020.31 1019.67 1019.67 1019.27 1018.87 1018.67 1018.31 1017.99 1017.75 1017.39 1017.07 1016.83 1016.43 1015.99
1031.99 1031.91 1031.79 1031.63 1031.47 1031.39 1031.23 1031.11 1030.99 1030.79 1030.67 1030.43 1030.23 1029.99 1029.75 1029.59 1029.43 1029.23 1028.95 1028.71 1028.47 1028.27 1028.07 1027.87 1027.63 1027.31 1027.15 1026.99 1026.79 1026.47 1026.27 1026.07 1025.91 1025.71 1025.43 1025.11 1024.83 1024.59 1024.27 1024.07 1023.87 1023.59 1023.27 1022.63 1022.23 1021.31 1021.31 1020.63 1020.55 1019.91 1019.59 1019.39 1019.11 1018.75 1018.67 1018.43 1018.03 1017.75 1017.47 1017.11 1016.75 1016.35 1015.91
1031.67 1031.67 1031.67 1031.59 1031.43 1031.27 1031.15 1030.99 1030.87 1030.67 1030.43 1030.23 1029.99 1029.79 1029.55 1029.31 1029.11 1028.87 1028.63 1028.43 1028.19 1027.95 1027.71 1027.47 1027.23 1026.95 1026.83 1026.67 1026.47 1026.15 1026.03 1025.83 1025.67 1025.47 1025.27 1024.99 1024.63 1024.39 1024.07 1023.75 1023.47 1023.11 1022.83 1022.51 1021.99 1021.19 1020.71 1020.59 1020.27 1019.87 1019.39 1019.31 1019.15 1018.75 1018.59 1018.27 1018.03 1017.75 1017.43 1017.03 1016.71 1016.43 1015.91
1031.67 1031.63 1031.55 1031.51 1031.39 1031.23 1031.07 1030.95 1030.75 1030.55 1030.27 1029.99 1029.79 1029.55 1029.31 1029.07 1028.83 1028.51 1028.31 1028.07 1027.87 1027.63 1027.39 1027.15 1026.87 1026.71 1026.59 1026.43 1026.27 1025.95 1025.75 1025.59 1025.43 1025.31 1025.11 1024.87 1024.55 1024.23 1023.95 1023.59 1023.27 1022.91 1022.59 1022.23 1021.63 1021.11 1020.55 1020.31 1020.15 1019.71 1019.31 1019.19 1019.11 1018.83 1018.35 1017.99 1017.71 1017.43 1017.19 1016.95 1016.51 1016.11 1015.75
1031.67 1031.59 1031.55 1031.39 1031.31 1031.15 1030.95 1030.71 1030.59 1030.39 1030.11 1029.83 1029.59 1029.35 1029.07 1028.79 1028.47 1028.23 1027.99 1027.75 1027.51 1027.27 1027.07 1026.87 1026.67 1026.47 1026.35 1026.15 1025.91 1025.71 1025.43 1025.27 1025.15 1024.95 1024.71 1024.43 1024.15 1023.87 1023.63 1023.31 1022.95 1022.71 1022.47 1022.07 1021.59 1020.99 1020.55 1020.07 1019.71 1019.59 1018.99 1018.71 1018.87 1018.51 1018.23 1017.87 1017.43 1017.11 1016.79 1016.47 1016.15 1015.59 1015.23
1031.71 1031.55 1031.51 1031.31 1031.15 1030.99 1030.87 1030.63 1030.43 1030.19 1029.95 1029.67 1029.39 1029.11 1028.75 1028.47 1028.19 1027.87 1027.55 1027.27 1027.03 1026.83 1026.63 1026.47 1026.27 1026.11 1025.87 1025.67 1025.39 1025.23 1024.91 1024.87 1024.67 1024.39 1024.19 1023.71 1023.55 1023.23 1023.07 1022.79 1022.47 1022.19 1021.99 1021.71 1021.27 1020.83 1020.35 1019.95 1019.55 1019.07 1018.67 1018.35 1018.47 1018.31 1017.79 1017.59 1017.35 1016.91 1016.43 1016.23 1015.87 1015.47 1015.11
1031.67 1031.51 1031.39 1031.23 1031.15 1030.95 1030.79 1030.59 1030.35 1030.07 1029.79 1029.47 1028.95 1028.63 1028.35 1027.99 1027.71 1027.43 1027.07 1026.71 1026.39 1026.15 1025.99 1025.75 1025.59 1025.31 1025.07 1024.87 1024.55 1024.23 1023.95 1023.75 1023.63 1023.55 1023.31 1022.79 1022.75 1022.55 1022.39 1022.15 1021.91 1021.67 1021.43 1021.11 1020.83 1020.35 1019.95 1019.59 1019.11 1018.63 1018.39 1018.15 1018.11 1017.91 1017.47 1017.07 1016.79 1016.23 1015.79 1015.55 1015.15 1014.75 1014.55
1031.63 1031.51 1031.31 1031.15 1030.99 1030.83 1030.63 1030.39 1030.11 1029.67 1029.15 1028.35 1027.87 1027.63 1027.43 1027.11 1026.79 1026.51 1026.19 1025.87 1025.47 1025.15 1024.95 1024.67 1024.43 1024.11 1023.83 1023.63 1023.39 1023.11 1022.83 1022.55 1022.27 1022.03 1021.87 1021.63 1021.71 1021.71 1021.63 1021.43 1021.19 1020.95 1020.71 1020.47 1020.19 1019.79 1019.43 1019.11 1018.51 1018.07 1017.75 1017.47 1017.03 1016.91 1016.67 1016.51 1016.39 1015.99 1015.55 1015.47 1015.11 1014.59 1014.23
1031.47 1031.31 1031.15 1030.99 1030.75 1030.47 1030.27 1029.99 1029.67 1029.03 1028.07 1027.43 1027.15 1026.83 1026.79 1026.43 1025.99 1025.79 1025.43 1025.15 1024.83 1024.39 1023.99 1023.59 1023.31 1023.03 1022.75 1022.51 1022.23 1021.99 1021.67 1021.35 1021.03 1020.79 1020.59 1020.35 1020.27 1020.27 1020.39 1020.47 1020.31 1019.95 1019.75 1019.63 1019.31 1018.95 1018.75 1018.39 1017.87 1017.39 1017.07 1016.67 1016.31 1016.27 1016.23 1015.99 1015.79 1015.63 1015.35 1015.39 1015.27 1014.71 1013.83
1031.23 1031.03 1030.83 1030.59 1030.35 1030.11 1029.79 1029.43 1028.95 1028.15 1027.55 1026.91 1026.31 1026.03 1025.91 1025.71 1025.43 1025.15 1024.83 1024.55 1024.19 1023.75 1023.31 1022.83 1022.47 1022.15 1021.87 1021.55 1021.27 1020.95 1020.59 1020.27 1020.03 1019.75 1019.51 1019.31 1019.11 1018.91 1018.71 1018.55 1018.63 1018.63 1018.59 1018.51 1018.35 1018.07 1017.75 1017.55 1017.19 1016.75 1016.47 1016.15 1015.95 1015.71 1015.55 1015.27 1015.19 1015.11 1015.03 1014.91 1014.71 1014.31 1014.03
1030.87 1030.59 1030.43 1030.23 1029.91 1029.59 1029.27 1028.95 1028.31 1027.55 1026.95 1026.31 1025.87 1025.43 1024.99 1024.79 1024.75 1024.63 1024.31 1024.03 1023.63 1023.23 1022.79 1022.39 1021.99 1021.55 1021.23 1020.91 1020.59 1020.31 1019.99 1019.75 1019.39 1018.99 1018.63 1018.27 1018.03 1017.83 1017.63 1017.27 1016.91 1016.87 1016.99 1017.11 1017.27 1017.15 1016.79 1016.67 1016.31 1016.11 1015.71 1015.31 1015.07 1014.99 1014.91 1014.75 1014.59 1014.51 1014.43 1014.27 1014.03 1013.47 1013.27
1030.51 1030.19 1029.99 1029.79 1029.51 1029.11 1028.83 1028.47 1027.91 1027.07 1026.27 1025.83 1025.23 1024.75 1024.35 1024.31 1024.19 1023.95 1023.71 1023.47 1023.19 1022.79 1022.43 1022.07 1021.67 1021.19 1020.67 1020.39 1020.19 1019.91 1019.59 1019.27 1018.87 1018.47 1018.19 1017.87 1017.51 1017.15 1016.71 1016.51 1016.15 1015.83 1015.59 1015.67 1015.67 1015.67 1015.55 1015.03 1015.23 1014.99 1014.51 1014.35 1014.55 1014.55 1014.23 1013.95 1013.87 1013.95 1013.87 1013.71 1013.27 1012.95 1012.79
1030.07 1029.79 1029.63 1029.39 1029.15 1028.79 1028.31 1027.91 1027.19 1026.47 1025.95 1025.31 1024.79 1024.19 1023.75 1023.91 1023.79 1023.63 1023.35 1023.07 1022.71 1022.31 1021.87 1021.51 1021.11 1020.67 1020.15 1019.71 1019.43 1019.07 1018.71 1018.35 1017.95 1017.63 1017.27 1016.87 1016.51 1016.19 1015.87 1015.63 1015.35 1015.03 1014.79 1014.63 1014.51 1014.35 1013.99 1013.67 1013.67 1013.59 1013.35 1013.39 1013.55 1013.47 1013.03 1012.87 1012.99 1013.15 1013.19 1012.95 1012.71 1012.55 1012.51
1029.71 1029.39 1029.15 1028.99 1028.79 1028.39 1027.83 1027.31 1026.63 1025.99 1025.39 1024.87 1024.35 1023.67 1023.67 1023.59 1023.51 1023.19 1022.83 1022.43 1022.07 1021.63 1021.23 1020.87 1020.47 1019.99 1019.47 1018.99 1018.51 1017.99 1017.47 1017.03 1016.71 1016.43 1016.03 1015.67 1015.27 1014.95 1014.63 1014.31 1013.79 1013.39 1013.19 1013.11 1012.95 1012.83 1012.63 1012.39 1012.11 1011.95 1011.99 1012.07 1012.19 1012.31 1012.23 1012.31 1012.35 1012.59 1012.67 1012.67 1012.51 1012.35 1012.11
1029.31 1029.07 1028.83 1028.59 1028.39 1028.07 1027.43 1026.87 1026.31 1025.67 1025.11 1024.51 1023.83 1023.47 1023.47 1023.27 1022.99 1022.67 1022.27 1021.83 1021.39 1020.95 1020.55 1020.15 1019.75 1019.27 1018.67 1018.15 1017.59 1017.03 1016.43 1015.75 1015.35 1015.11 1014.83 1014.35 1013.91 1013.55 1013.23 1012.83 1012.39 1011.99 1011.67 1011.27 1010.87 1010.51 1010.35 1010.23 1010.11 1010.03 1010.07 1009.99 1010.03 1010.43 1010.87 1011.23 1011.59 1011.59 1011.79 1011.91 1011.79 1011.47 1011.63
1028.91 1028.71 1028.51 1028.19 1027.87 1027.67 1027.15 1026.39 1025.83 1025.23 1024.83 1024.19 1023.35 1023.03 1023.11 1022.87 1022.63 1022.23 1021.79 1021.11 1020.63 1020.19 1019.79 1019.47 1019.03 1018.63 1018.15 1017.59 1016.91 1016.15 1015.31 1014.55 1014.19 1013.99 1013.59 1013.23 1012.91 1012.51 1012.07 1011.51 1011.11 1010.83 1010.47 1009.91 1009.35 1008.91 1008.67 1008.47 1008.39 1008.35 1008.23 1008.19 1008.19 1008.35 1008.95 1009.87 1010.19 1009.95 1010.47 1010.67 1010.75 1010.63 1010.63
1028.55 1028.19 1027.99 1027.79 1027.47 1027.11 1026.79 1026.19 1025.59 1025.15 1024.63 1023.79 1023.03 1022.79 1022.63 1022.43 1022.11 1021.63 1020.95 1020.39 1019.95 1019.67 1019.31 1018.83 1018.43 1018.07 1017.59 1016.87 1015.99 1015.11 1014.35 1013.67 1013.35 1013.07 1012.79 1012.47 1012.07 1011.55 1010.99 1010.27 1009.99 1009.71 1009.35 1008.99 1008.75 1008.39 1007.95 1007.67 1007.47 1007.47 1007.67 1007.83 1007.87 1007.83 1008.07 1008.39 1008.59 1008.87 1009.43 1009.67 1009.63 1009.71 1009.95
1028.15 1027.83 1027.47 1027.31 1027.11 1026.83 1026.59 1026.15 1025.47 1025.11 1024.23 1023.35 1022.67 1022.15 1021.79 1021.71 1021.51 1020.95 1020.39 1020.03 1019.67 1019.11 1018.59 1018.31 1017.91 1017.35 1016.83 1016.11 1015.39 1014.67 1013.83 1013.19 1012.55 1012.27 1012.11 1011.79 1011.23 1010.59 1009.91 1009.51 1009.31 1008.91 1008.51 1007.99 1007.59 1006.95 1006.71 1006.71 1006.67 1006.71 1006.83 1006.99 1007.15 1007.19 1007.27 1007.35 1007.59 1007.91 1008.27 1008.47 1008.43 1008.51 1008.67
1027.71 1027.43 1027.03 1026.87 1026.67 1026.43 1026.07 1025.79 1025.27 1024.55 1023.83 1023.07 1022.31 1021.35 1021.03 1021.03 1020.75 1020.35 1020.07 1019.59 1019.03 1018.75 1018.55 1018.11 1017.55 1016.95 1016.51 1015.95 1015.15 1014.31 1013.51 1012.67 1011.99 1011.67 1011.43 1011.07 1010.75 1010.35 1009.63 1009.11 1008.67 1008.15 1007.75 1007.15 1006.19 1005.51 1005.47 1005.79 1006.07 1006.11 1006.15 1006.35 1006.55 1006.67 1006.71 1006.75 1006.83 1006.99 1007.15 1007.23 1007.23 1007.43 1007.71
1027.27 1026.99 1026.59 1026.31 1026.11 1025.87 1025.51 1025.15 1024.79 1024.23 1023.47 1022.67 1021.87 1021.19 1020.55 1020.35 1020.11 1019.83 1019.47 1019.07 1018.99 1018.75 1018.31 1017.83 1017.15 1016.59 1016.03 1015.43 1014.59 1013.71 1012.83 1012.23 1011.71 1011.11 1011.07 1010.79 1010.11 1009.35 1008.87 1008.75 1008.55 1007.95 1007.15 1006.19 1005.27 1004.79 1004.83 1004.99 1005.11 1005.23 1005.35 1005.55 1005.71 1005.83 1005.83 1005.87 1005.91 1006.03 1006.11 1005.99 1005.91 1006.19 1006.59
1026.83 1026.51 1026.03 1025.63 1025.43 1025.23 1024.95 1024.59 1024.23 1023.79 1023.19 1022.55 1021.87 1021.19 1020.51 1019.91 1019.63 1019.11 1019.11 1019.15 1018.83 1018.51 1018.03 1017.47 1016.87 1016.11 1015.47 1014.71 1013.71 1012.95 1012.39 1011.75 1011.23 1011.11 1011.03 1010.39 1009.83 1009.51 1009.31 1009.07 1008.35 1007.39 1006.47 1005.63 1004.91 1004.55 1004.27 1004.15 1004.19 1004.35 1004.39 1004.51 1004.71 1004.75 1004.83 1004.91 1004.95 1005.03 1005.19 1005.19 1005.23 1005.43 1005.55
1026.31 1025.99 1025.55 1025.11 1024.67 1024.59 1024.39 1024.11 1023.75 1023.27 1022.91 1022.47 1021.95 1021.15 1020.39 1019.75 1019.23 1018.91 1018.87 1018.83 1018.63 1018.23 1017.75 1017.11 1016.39 1015.51 1014.47 1013.67 1013.19 1012.75 1012.27 1011.75 1011.59 1011.59 1010.99 1010.51 1010.35 1010.19 1009.71 1009.07 1008.39 1007.59 1006.63 1005.63 1004.63 1004.27 1004.07 1003.79 1003.63 1003.71 1003.75 1003.67 1003.51 1003.59 1003.79 1004.03 1004.19 1004.35 1004.51 1004.59 1004.67 1004.83 1004.91
1025.91 1025.55 1025.15 1024.79 1024.35 1023.99 1023.83 1023.59 1023.27 1022.95 1022.63 1022.27 1021.67 1020.95 1020.35 1019.79 1019.27 1019.07 1019.07 1018.91 1018.43 1017.99 1017.27 1016.43 1015.35 1014.51 1014.07 1013.79 1013.51 1013.11 1012.67 1012.35 1012.11 1011.75 1011.39 1011.07 1010.71 1010.31 1009.99 1009.51 1008.79 1007.95 1006.95 1005.99 1004.99 1003.91 1003.35 1003.23 1002.99 1002.87 1002.75 1002.67 1002.91 1003.03 1003.31 1003.59 1003.67 1003.71 1003.79 1003.87 1004.07 1004.15 1004.19
1025.43 1025.11 1024.79 1024.35 1023.95 1023.59 1023.27 1022.99 1022.79 1022.47 1022.23 1021.83 1021.31 1020.87 1020.43 1019.99 1019.59 1019.35 1018.99 1018.67 1018.07 1017.27 1016.43 1015.67 1015.03 1014.79 1014.59 1014.31 1013.87 1013.43 1012.95 1012.47 1012.03 1011.67 1011.39 1011.11 1010.75 1010.47 1010.03 1009.55 1008.87 1008.03 1007.27 1006.39 1005.39 1004.55 1003.63 1002.75 1002.31 1002.23 1001.99 1001.99 1002.31 1002.67 1002.67 1002.67 1002.83 1003.03 1003.15 1003.35 1003.55 1003.67 1003.63
1025.07 1024.71 1024.39 1023.99 1023.55 1023.19 1022.75 1022.43 1022.19 1021.95 1021.67 1021.39 1021.07 1020.67 1020.27 1019.91 1019.47 1019.03 1018.51 1017.91 1017.27 1016.55 1015.83 1015.27 1015.11 1014.95 1014.55 1014.19 1013.79 1013.51 1013.11 1012.71 1012.23 1011.79 1011.31 1010.99 1010.67 1010.31 1009.95 1009.43 1008.87 1008.15 1007.31 1006.35 1005.39 1004.35 1003.43 1002.63 1001.99 1001.39 1001.19 1001.23 1001.39 1001.55 1001.59 1001.79 1001.99 1002.23 1002.27 1002.39 1002.51 1002.75 1002.71
1024.71 1024.35 1023.91 1023.43 1023.07 1022.67 1022.15 1021.71 1021.55 1021.35 1021.19 1020.95 1020.63 1020.15 1019.75 1019.39 1018.91 1018.39 1017.91 1017.23 1016.47 1015.83 1015.35 1015.23 1015.11 1014.91 1014.63 1014.27 1013.95 1013.59 1013.23 1012.83 1012.39 1011.91 1011.39 1010.91 1010.55 1010.19 1009.79 1009.27 1008.59 1007.75 1006.91 1006.07 1005.35 1004.51 1003.75 1002.87 1002.07 1000.99 1000.11 1000.03 1000.35 1000.51 1000.59 1000.91 1001.27 1001.39 1001.39 1001.43 1001.59 1001.95 1002.03
1023.79 1023.47 1023.15 1023.03 1022.55 1021.91 1021.27 1020.99 1020.79 1020.75 1020.71 1020.23 1019.87 1019.51 1019.03 1018.59 1018.11 1017.59 1017.07 1016.39 1015.71 1015.23 1015.27 1015.39 1015.23 1014.99 1014.59 1014.35 1013.95 1013.55 1013.19 1012.71 1012.27 1011.75 1011.35 1010.91 1010.43 1010.07 1009.63 1009.07 1008.39 1007.63 1006.99 1006.43 1005.71 1004.87 1003.99 1003.19 1001.99 1000.43 999.31 999.11 999.43 999.67 999.87 1000.15 1000.47 1000.51 1000.59 1000.59 1000.79 1000.91 1000.91
1022.35 1022.23 1022.15 1021.79 1021.47 1021.59 1021.11 1020.59 1020.27 1020.07 1019.79 1019.63 1019.19 1018.83 1018.55 1017.99 1017.31 1016.71 1016.23 1015.75 1015.43 1015.47 1015.59 1015.59 1015.39 1015.07 1014.75 1014.35 1014.03 1013.55 1013.07 1012.63 1012.23 1011.71 1011.15 1010.71 1010.39 1010.07 1009.59 1008.99 1008.47 1007.95 1007.27 1006.51 1005.71 1004.91 1004.07 1002.95 1001.83 1000.11 998.87 998.63 998.75 998.99 999.27 999.39 999.59 999.75 999.83 1000.07 1000.07 1000.11 1000.15
1021.47 1021.31 1021.31 1021.31 1020.99 1020.79 1020.75 1020.39 1020.15 1019.95 1019.55 1019.23 1018.87 1018.47 1018.03 1017.51 1016.95 1016.39 1015.99 1015.59 1015.47 1015.71 1015.99 1015.75 1015.47 1015.15 1014.87 1014.51 1014.11 1013.67 1013.19 1012.79 1012.35 1011.87 1011.39 1010.83 1010.43 1010.03 1009.55 1009.07 1008.59 1008.03 1007.35 1006.55 1005.63 1004.63 1003.87 1003.07 1002.07 1000.23 998.83 998.67 998.63 998.67 998.75 998.79 998.87 998.95 999.23 999.39 999.43 999.55 999.47
1021.15 1020.95 1020.95 1020.87 1020.67 1020.47 1020.39 1020.39 1020.19 1019.87 1019.27 1018.79 1018.59 1018.35 1017.75 1017.23 1016.63 1015.95 1015.67 1015.63 1015.91 1016.15 1016.11 1016.03 1015.71 1015.31 1015.03 1014.63 1014.19 1013.75 1013.39 1012.95 1012.51 1012.03 1011.63 1011.07 1010.47 1009.87 1009.55 1009.11 1008.59 1008.07 1007.55 1006.59 1005.63 1004.91 1004.15 1003.39 1002.47 1000.99 999.19 998.71 998.59 998.59 998.55 998.63 998.79 998.87 998.99 999.03 998.99 998.95 998.91
1021.39 1021.11 1020.83 1020.71 1020.59 1020.43 1020.43 1020.15 1019.83 1019.59 1019.27 1018.99 1018.59 1018.11 1017.67 1016.95 1016.51 1016.39 1016.11 1016.07 1016.39 1016.43 1016.23 1016.07 1015.83 1015.51 1015.15 1014.83 1014.39 1013.95 1013.55 1013.03 1012.63 1012.23 1011.75 1011.31 1010.83 1010.19 1009.59 1009.23 1008.79 1008.27 1007.55 1006.75 1006.07 1005.39 1004.71 1003.91 1002.91 1001.83 1000.07 998.75 998.63 998.55 998.55 998.47 998.47 998.51 998.59 998.63 998.63 998.59 998.51
1021.79 1021.55 1021.47 1021.31 1020.99 1020.63 1020.19 1019.95 1019.71 1019.39 1019.19 1018.79 1018.39 1017.83 1017.23 1016.91 1016.99 1016.87 1016.63 1016.51 1016.51 1016.51 1016.31 1016.15 1015.87 1015.55 1015.27 1014.91 1014.55 1014.15 1013.71 1013.19 1012.71 1012.31 1011.91 1011.43 1010.99 1010.47 1009.87 1009.31 1008.83 1008.23 1007.51 1006.83 1006.31 1005.79 1005.07 1004.23 1003.43 1002.51 1001.59 999.91 998.71 998.55 998.47 998.47 998.39 998.39 998.39 998.43 998.43 998.35 998.27
1021.43 1021.51 1021.55 1021.27 1021.07 1020.83 1020.59 1020.27 1019.95 1019.71 1019.43 1019.15 1018.47 1017.43 1017.15 1017.55 1017.75 1017.51 1017.27 1017.07 1016.91 1016.55 1016.31 1016.11 1015.87 1015.67 1015.31 1015.07 1014.63 1014.23 1013.87 1013.35 1012.87 1012.39 1011.99 1011.59 1011.07 1010.51 1009.95 1009.39 1008.87 1008.31 1007.71 1007.15 1006.59 1006.03 1005.43 1004.75 1004.07 1003.27 1002.39 1001.63 1000.07 998.71 998.47 998.39 998.31 998.31 998.31 998.31 998.31 998.19 998.15
1021.19 1021.15 1021.03 1020.95 1020.79 1020.63 1020.39 1020.15 1019.87 1019.67 1019.39 1018.47 1017.67 1017.47 1017.91 1018.27 1018.15 1017.87 1017.59 1017.27 1016.95 1016.63 1016.31 1016.11 1015.95 1015.75 1015.43 1015.19 1014.79 1014.39 1013.95 1013.51 1013.03 1012.55 1012.19 1011.79 1011.31 1010.75 1010.19 1009.63 1008.99 1008.39 1007.91 1007.51 1007.07 1006.43 1005.79 1005.19 1004.55 1003.95 1003.27 1002.27 1001.11 999.75 998.63 998.27 998.15 998.11 998.07 998.11 998.11 998.07 997.99
Thickness
5055 5053 5051 5049 5047 5045 5044 5042 5040 5038 5036 5034 5033 5031 5030 5029 5029 5028 5030 5031 5032 5032 5031 5033 5036 5040 5042 5041 5042 5047 5050 5053 5055 5058 5061 5064 5068 5072 5075 5080 5081 5089 5112 5127 5128 5140 5154 5156 5160 5168 5176 5184 5192 5201 5209 5217 5225 5232 5239 5246 5255 5262 5268
5046 5044 5042 5041 5039 5037 5034 5032 5029 5026 5024 5022 5021 5019 5018 5017 5016 5016 5017 5018 5018 5019 5017 5016 5019 5024 5026 5025 5025 5031 5034 5037 5041 5042 5047 5051 5053 5059 5063 5064 5067 5072 5086 5103 5112 5122 5133 5138 5142 5152 5161 5166 5174 5184 5191 5199 5208 5216 5223 5231 5240 5248 5257
5037 5037 5035 5033 5031 5029 5026 5023 5020 5016 5013 5011 5009 5008 5007 5005 5004 5004 5005 5005 5005 5005 5003 5001 5004 5007 5008 5007 5008 5014 5018 5020 5025 5026 5030 5036 5039 5043 5050 5051 5052 5057 5066 5081 5094 5104 5115 5121 5125 5136 5146 5149 5157 5168 5173 5182 5194 5200 5207 5216 5224 5233 5242
5031 5029 5027 5026 5023 5021 5018 5014 5011 5008 5004 5001 4998 4998 4997 4996 4995 4994 4993 4993 4992 4991 4989 4988 4990 4992 4993 4992 4993 4999 5003 5003 5007 5010 5013 5019 5024 5027 5035 5039 5039 5044 5051 5061 5075 5089 5100 5105 5110 5121 5131 5133 5141 5152 5157 5166 5177 5184 5192 5201 5208 5216 5227
5026 5024 5021 5018 5015 5013 5010 5006 5002 4998 4995 4992 4989 4987 4987 4986 4985 4984 4982 4981 4980 4978 4977 4975 4976 4978 4978 4978 4980 4984 4987 4988 4990 4993 4995 5001 5008 5012 5018 5024 5027 5032 5038 5044 5058 5075 5086 5090 5096 5107 5116 5119 5124 5134 5141 5149 5159 5169 5177 5186 5193 5201 5212
5020 5017 5014 5011 5008 5004 5001 4997 4993 4989 4985 4982 4980 4978 4977 4976 4975 4974 4971 4970 4968 4966 4964 4963 4963 4964 4963 4963 4966 4969 4971 4973 4974 4976 4980 4985 4992 4996 5001 5007 5014 5019 5024 5030 5042 5058 5070 5077 5083 5092 5104 5108 5109 5116 5126 5135 5145 5154 5162 5171 5179 5188 5198
5012 5010 5007 5004 5001 4996 4993 4989 4984 4979 4975 4972 4970 4968 4967 4966 4964 4963 4961 4958 4956 4953 4951 4951 4950 4950 4950 4950 4952 4955 4957 4959 4960 4962 4967 4972 4977 4982 4986 4993 5001 5005 5010 5017 5028 5041 5053 5063 5070 5078 5090 5098 5096 5100 5113 5122 5131 5139 5148 5157 5165 5175 5184
5005 5003 4999 4996 4992 4988 4984 4980 4975 4970 4966 4963 4961 4959 4958 4957 4954 4952 4951 4948 4946 4943 4941 4940 4939 4939 4940 4939 4940 4944 4945 4947 4949 4951 4956 4962 4966 4970 4975 4981 4988 4993 4998 5004 5014 5026 5038 5048 5057 5066 5078 5086 5085 5089 5102 5109 5114 5126 5136 5143 5150 5161 5171
4998 4995 4992 4988 4984 4979 4975 4971 4966 4961 4957 4955 4954 4952 4950 4949 4946 4944 4942 4940 4939 4936 4933 4932 4931 4931 4932 4932 4934 4937 4939 4940 4942 4943 4949 4956 4958 4960 4965 4970 4975 4982 4988 4993 5002 5013 5024 5032 5043 5055 5065 5073 5076 5081 5092 5096 5101 5114 5126 5130 5138 5150 5160
4991 4988 4985 4982 4978 4973 4968 4963 4958 4954 4952 4950 4948 4945 4942 4941 4940 4937 4936 4934 4933 4932 4930 4928 4927 4928 4928 4928 4930 4932 4934 4937 4939 4940 4945 4950 4952 4953 4956 4960 4966 4972 4979 4984 4991 5001 5010 5018 5031 5045 5053 5062 5070 5074 5081 5086 5091 5103 5113 5116 5124 5139 5149
4986 4983 4979 4975 4971 4967 4963 4958 4952 4950 4949 4948 4944 4939 4934 4933 4933 4931 4928 4927 4926 4926 4926 4925 4926 4926 4926 4927 4928 4929 4932 4934 4936 4938 4940 4945 4948 4950 4951 4954 4959 4966 4971 4976 4982 4991 4999 5005 5019 5033 5041 5051 5061 5065 5070 5079 5083 5090 5099 5103 5112 5127 5138
4981 4978 4974 4970 4966 4962 4958 4954 4949 4946 4945 4943 4941 4936 4929 4926 4925 4924 4921 4919 4918 4920 4921 4922 4923 4923 4924 4926 4926 4927 4930 4932 4934 4935 4936 4940 4944 4947 4950 4953 4957 4962 4966 4969 4974 4982 4990 4997 5009 5021 5030 5040 5050 5055 5060 5068 5073 5079 5088 5094 5101 5114 5127
4977 4974 4969 4965 4961 4958 4954 4949 4945 4944 4942 4939 4936 4932 4927 4923 4920 4918 4916 4914 4913 4914 4915 4917 4918 4920 4922 4923 4923 4924 4926 4928 4930 4932 4934 4936 4940 4944 4948 4952 4956 4960 4964 4966 4969 4974 4984 4993 5000 5009 5022 5033 5037 5041 5050 5059 5067 5072 5077 5083 5093 5105 5116
4973 4970 4966 4961 4957 4954 4950 4945 4940 4939 4938 4936 4932 4929 4925 4920 4916 4914 4912 4910 4909 4909 4910 4912 4913 4916 4920 4920 4920 4921 4922 4923 4926 4929 4931 4933 4936 4941 4945 4948 4952 4957 4961 4964 4967 4971 4981 4992 4996 5002 5017 5025 5024 5030 5044 5055 5060 5062 5065 5073 5085 5095 5102
4969 4966 4962 4957 4952 4950 4947 4942 4936 4935 4934 4930 4928 4925 4921 4916 4912 4910 4909 4908 4907 4906 4907 4908 4910 4913 4917 4919 4920 4921 4921 4922 4925 4927 4930 4933 4936 4940 4943 4946 4951 4955 4959 4962 4965 4969 4978 4989 4994 5000 5009 5016 5017 5023 5038 5048 5049 5050 5054 5063 5075 5084 5091
4965 4962 4958 4953 4947 4944 4943 4939 4933 4930 4928 4925 4923 4921 4916 4911 4909 4908 4907 4907 4905 4905 4906 4906 4907 4911 4914 4917 4920 4922 4922 4924 4926 4928 4932 4936 4939 4942 4945 4949 4954 4958 4961 4964 4967 4971 4978 4986 4994 5000 5005 5012 5014 5017 5027 5034 5036 5039 5045 5054 5065 5074 5083
4962 4957 4953 4949 4943 4939 4938 4936 4931 4926 4924 4921 4919 4916 4911 4908 4907 4906 4906 4906 4905 4905 4905 4906 4906 4908 4911 4915 4919 4921 4925 4928 4929 4930 4934 4938 4942 4946 4947 4952 4959 4962 4965 4969 4972 4977 4982 4987 4995 5000 5004 5011 5015 5017 5020 5020 5025 5035 5042 5047 5057 5066 5076
4959 4954 4949 4945 4940 4935 4932 4932 4929 4923 4919 4917 4915 4912 4907 4905 4905 4904 4905 4906 4905 4905 4904 4905 4904 4905 4907 4912 4917 4922 4927 4931 4931 4932 4936 4938 4942 4945 4950 4958 4963 4965 4968 4972 4975 4979 4983 4987 4993 4998 5002 5007 5012 5017 5016 5014 5023 5037 5039 5039 5048 5062 5070
4955 4952 4946 4941 4937 4931 4926 4925 4923 4917 4914 4913 4911 4907 4903 4901 4902 4903 4904 4905 4904 4904 4903 4903 4903 4903 4905 4910 4916 4923 4928 4932 4933 4934 4936 4938 4941 4946 4954 4961 4963 4963 4967 4971 4974 4978 4982 4986 4990 4994 4997 5000 5006 5011 5013 5013 5024 5034 5033 5033 5045 5059 5065
4951 4949 4944 4938 4932 4927 4921 4918 4916 4913 4909 4908 4907 4905 4902 4899 4899 4900 4902 4903 4902 4902 4902 4900 4901 4902 4904 4908 4914 4920 4926 4931 4933 4934 4935 4938 4942 4947 4954 4958 4958 4961 4967 4971 4976 4982 4985 4985 4987 4990 4992 4995 5000 5005 5009 5013 5019 5025 5026 5031 5043 5054 5058
4949 4946 4942 4936 4930 4925 4919 4913 4910 4909 4906 4904 4903 4902 4901 4898 4897 4898 4898 4900 4900 4898 4898 4898 4900 4901 4903 4906 4911 4918 4923 4929 4933 4934 4935 4938 4942 4946 4951 4953 4955 4961 4967 4972 4980 4986 4987 4986 4986 4988 4989 4991 4994 5000 5004 5008 5012 5016 5021 5030 5041 5047 5049
4947 4944 4941 4936 4929 4924 4919 4912 4907 4905 4903 4901 4899 4899 4899 4897 4897 4896 4896 4897 4897 4895 4895 4897 4899 4901 4904 4906 4912 4918 4923 4927 4932 4933 4935 4937 4941 4945 4948 4949 4953 4959 4965 4972 4980 4985 4987 4987 4988 4988 4989 4990 4992 4995 5000 5003 5006 5009 5015 5025 5036 5040 5041
4945 4942 4941 4937 4931 4924 4919 4913 4907 4902 4900 4897 4895 4895 4896 4895 4895 4895 4893 4893 4893 4893 4894 4895 4898 4901 4905 4909 4914 4920 4924 4928 4930 4931 4933 4936 4939 4941 4943 4945 4949 4956 4962 4971 4977 4980 4984 4987 4988 4989 4990 4991 4993 4995 4997 4999 5002 5005 5009 5018 5027 5030 5034
4944 4941 4940 4937 4932 4926 4919 4912 4906 4901 4897 4893 4891 4891 4893 4893 4893 4892 4890 4889 4891 4892 4893 4895 4899 4904 4909 4912 4916 4919 4922 4925 4926 4926 4929 4932 4934 4934 4937 4940 4945 4951 4958 4966 4973 4979 4982 4985 4987 4989 4991 4993 4994 4995 4995 4997 4999 5003 5006 5011 5017 5021 5028
4943 4940 4938 4936 4932 4927 4920 4913 4906 4900 4895 4891 4889 4889 4889 4890 4890 4888 4886 4886 4889 4891 4894 4898 4902 4906 4909 4910 4912 4915 4918 4921 4922 4922 4925 4927 4928 4930 4932 4935 4940 4946 4952 4960 4968 4976 4981 4985 4987 4989 4992 4994 4994 4993 4994 4996 4999 5002 5003 5005 5009 5014 5023
4941 4939 4936 4934 4930 4926 4921 4914 4907 4901 4896 4891 4889 4887 4886 4887 4886 4885 4885 4886 4889 4892 4896 4900 4903 4904 4906 4907 4910 4912 4914 4917 4919 4920 4921 4922 4924 4926 4929 4932 4937 4942 4948 4954 4962 4970 4978 4985 4988 4991 4994 4994 4993 4994 4996 4997 4998 5000 5001 5002 5005 5010 5019
4939 4937 4935 4932 4929 4925 4921 4916 4910 4904 4898 4893 4889 4887 4886 4886 4885 4886 4887 4889 4891 4895 4899 4901 4902 4902 4903 4905 4907 4908 4910 4912 4915 4917 4919 4921 4922 4924 4927 4930 4934 4939 4946 4952 4960 4968 4976 4982 4987 4993 4997 4998 4997 4998 5000 5000 5000 5001 5003 5004 5006 5010 5016
4937 4935 4933 4931 4928 4926 4924 4919 4912 4906 4900 4895 4891 4889 4888 4887 4888 4888 4889 4891 4894 4898 4900 4900 4900 4901 4902 4903 4905 4906 4907 4909 4911 4914 4917 4919 4921 4924 4926 4929 4934 4940 4946 4951 4957 4965 4972 4978 4985 4994 5002 5003 5003 5003 5004 5003 5002 5003 5005 5007 5008 5010 5015
4939 4936 4934 4932 4929 4926 4925 4922 4915 4907 4901 4897 4893 4891 4890 4890 4891 4893 4893 4895 4898 4899 4899 4898 4898 4899 4900 4901 4902 4904 4906 4907 4910 4913 4915 4918 4921 4923 4925 4929 4934 4939 4944 4949 4954 4961 4969 4975 4984 4996 5006 5008 5007 5007 5006 5005 5005 5005 5007 5009 5011 5013 5016
4940 4936 4933 4931 4927 4923 4920 4918 4914 4908 4903 4898 4895 4892 4890 4891 4893 4895 4896 4897 4898 4897 4896 4896 4897 4897 4898 4899 4900 4902 4904 4907 4910 4912 4916 4918 4920 4922 4924 4928 4932 4936 4941 4947 4953 4959 4967 4973 4983 4996 5007 5010 5010 5010 5009 5008 5008 5009 5009 5011 5012 5015 5018
4940 4936 4931 4927 4925 4922 4917 4914 4911 4907 4903 4899 4896 4893 4892 4892 4894 4896 4897 4897 4896 4894 4893 4894 4895 4895 4895 4896 4899 4901 4903 4906 4908 4911 4914 4917 4920 4922 4924 4928 4931 4935 4939 4946 4953 4959 4965 4971 4980 4994 5006 5009 5009 5010 5010 5009 5010 5010 5010 5011 5014 5016 5018
4938 4935 4930 4925 4921 4918 4914 4911 4908 4905 4903 4900 4897 4894 4892 4892 4894 4895 4896 4894 4892 4891 4890 4891 4892 4893 4894 4895 4897 4900 4901 4904 4906 4909 4912 4915 4919 4922 4924 4926 4929 4933 4937 4944 4951 4957 4962 4967 4975 4987 5001 5007 5008 5008 5010 5010 5010 5010 5011 5012 5014 5017 5019
4932 4930 4927 4922 4918 4914 4911 4908 4905 4903 4902 4899 4896 4893 4893 4893 4892 4893 4893 4891 4889 4888 4888 4889 4889 4891 4892 4893 4895 4897 4899 4902 4905 4907 4910 4913 4916 4920 4922 4925 4928 4931 4936 4942 4948 4952 4957 4964 4970 4980 4993 5003 5007 5008 5008 5009 5010 5010 5011 5012 5014 5017 5020
4929 4925 4922 4918 4915 4911 4908 4905 4903 4900 4898 4896 4895 4894 4893 4890 4887 4887 4887 4887 4886 4885 4886 4887 4887 4889 4890 4891 4892 4895 4897 4900 4903 4905 4908 4911 4913 4917 4921 4923 4926 4931 4936 4941 4945 4949 4954 4960 4967 4974 4983 4994 5003 5008 5008 5008 5009 5011 5011 5012 5014 5016 5019
4931 4925 4920 4917 4914 4911 4906 4903 4901 4898 4895 4894 4895 4896 4893 4887 4884 4882 4883 4883 4883 4883 4884 4884 4885 4887 4888 4888 4891 4893 4895 4898 4901 4904 4907 4909 4912 4915 4919 4922 4926 4930 4934 4938 4942 4947 4951 4956 4962 4968 4974 4983 4995 5004 5008 5009 5009 5010 5011 5012 5014 5016 5018
4934 4927 4921 4916 4913 4909 4906 4902 4899 4896 4895 4895 4896 4894 4889 4884 4882 4880 4879 4879 4880 4881 4882 4882 4883 4883 4885 4886 4889 4890 4892 4896 4899 4902 4904 4907 4910 4913 4917 4921 4925 4929 4932 4935 4940 4944 4949 4953 4958 4963 4969 4975 4985 4996 5005 5009 5010 5011 5012 5014 5014 5016 5018